www.pogodaiklimat.ru

Погода и климат >> Архив погоды >> Россия >> Якутия >> Белая Гора


ПОГОДА в Белой Горе

  • Прогноз погоды в Белой Горе
  • Монитор погоды в Белой Горе
  • Климат города

АРХИВ ПОГОДЫ в Белой Горе

Время (UTC), дата Ветер
(напр.,м/с)
 
Видим.   Явления Облачность Т
(С)
Тd
(С)
f
(%)
Тe
(С)
Тes
(С)
Комфортность P
(гПа)
Po
(гПа)
Тmin
(С)
Tmax
(С)
R
(мм)
R24
(мм)
S
(см)
06 19.04 З 1 50 км 3/0
[Ac As]
0.0 -7.7 56 -1 +2 1020.1 1014.9
09 19.04 СЗ 2 50 км ясно -1.4 -8.7 58 -5 -4 1020.5 1015.2 +0.1
12 19.04 штиль 0 4000 м ясно -11.0 -13.3 83 -11 -11 1020.8 1015.3
15 19.04 штиль 0 н/о н/о -15.1 -15.7 95 -15 -15 1021.1 1015.2
18 19.04 штиль 0 н/о н/о -18.3 -19.5 90 -18 -18 1021.2 1015.2
21 19.04 штиль 0 50 км 6/0
[Ci sp]
-13.2 -15.2 85 -13 -11 1020.4 1014.9 -19.5 90
00 20.04 З 1 50 км 5/0
[Ci sp]
-2.5 -9.1 60 -4 +2 1019.2 1013.9
03 20.04 В 1 50 км ясно +2.6 -10.3 38 +2 +10 опасность
простуды
1018.1 1012.9
06 20.04 ЮЗ 3 50 км ясно +2.4 -10.7 37 -1 +2 1017.6 1012.4
09 20.04 З 1 н/о н/о +2.3 -13.1 31 +2 +2 1018.1 1012.6 +3.8
12 20.04 штиль 0 н/о н/о -10.4 -13.8 76 -11 -11 1018.5 1012.7
15 20.04 СЗ 2 н/о н/о -11.0 -14.2 77 -15 -15 1018.5 1012.7
18 20.04 СЗ 2 н/о н/о -14.5 -16.3 86 -19 -19 1019.2 1013.3
21 20.04 штиль 0 50 км ясно -7.6 -14.2 59 -8 -6 1019.4 1014.0 -14.5 88
00 21.04 ЮВ 1 50 км ясно +1.0 -10.5 42 0 +7 1019.1 1013.9
03 21.04 Ю 2 50 км ясно +4.0 -10.4 34 +2 +9 1019.0 1013.8
06 21.04 В 2 50 км ясно +4.1 -10.8 33 +2 +6 1018.4 1013.2
09 21.04 В 1 н/о н/о +3.5 -12.2 31 +3 +3 1018.7 1013.2
12 21.04 штиль 0 н/о н/о -7.4 -11.2 74 -8 -8 1019.5 1013.7
15 21.04 С 2 н/о н/о -9.3 -12.1 80 -14 -14 1019.9 1014.1
18 21.04 СЗ 1 н/о н/о -12.5 -13.5 92 -15 -15 1020.7 1014.9
21 21.04 штиль 0 н/о н/о -7.4 -12.0 70 -8 -8 1021.9 1016.1 -14.3
00 22.04 СВ 1 н/о н/о +1.0 -10.1 43 0 0 1021.9 1016.3
03 22.04 СЗ 1 н/о н/о +4.9 -6.9 42 +4 +4 1022.0 1016.5
06 22.04 С 2 н/о н/о +5.3 -8.4 36 +4 +4 1022.3 1016.8
09 22.04 З 1 н/о н/о +4.5 -8.7 38 +4 +4 1023.4 1017.8 +6.9
12 22.04 штиль 0 н/о н/о -3.9 -8.8 69 -5 -5 1024.4 1018.7
15 22.04 штиль 0 н/о н/о -10.6 -12.0 89 -11 -11 1025.0 1019.1
18 22.04 штиль 0 н/о н/о -13.6 -14.3 94 -14 -14 1026.2 1020.3
21 22.04 штиль 0 н/о н/о -8.0 -12.3 71 -9 -9 1027.2 1021.4 -14.7
00 23.04 СЗ 1 н/о н/о +1.2 -9.8 44 0 0 1027.7 1022.1
03 23.04 СЗ 1 н/о н/о +7.6 -9.3 29 +8 +8 1027.3 1021.8
06 23.04 С 1 н/о н/о +8.1 -9.0 29 +8 +8 1027.4 1021.9
09 23.04 З 1 н/о н/о +5.9 -9.2 33 +6 +6 1028.0 1022.5 +8.5
12 23.04 штиль 0 н/о н/о -3.6 -7.8 73 -4 -4 1028.4 1022.7
15 23.04 штиль 0 н/о н/о -9.5 -10.6 92 -10 -10 1028.3 1022.4
18 23.04 штиль 0 н/о н/о -12.0 -12.4 97 -12 -12 1028.3 1022.4
21 23.04 штиль 0 50 км ясно -5.4 -11.0 65 -6 -3 1027.8 1022.4 82
00 24.04 СЗ 1 50 км 8/0
[Ci fib]
+3.5 -8.4 41 +3 +9 1026.9 1021.7
03 24.04 СЗ 1 50 км 5/0
[Ci]
+6.6 -9.2 31 +7 +14 1025.8 1020.6
06 24.04 С 2 50 км ясно +6.2 -8.9 33 +5 +9 1024.3 1019.1
09 24.04 В 2 н/о н/о +5.8 -8.2 36 +4 +4 1023.7 1018.2 +7.8
12 24.04 В 3 н/о н/о -0.8 -7.4 61 -5 -5 1023.2 1017.6
15 24.04 штиль 0 н/о н/о -5.3 -9.3 73 -6 -6 1022.5 1016.8
18 24.04 В 4 н/о н/о -6.1 -9.9 74 -13 -13 1021.9 1016.1
21 24.04 СВ 3 50 км ясно -5.2 -9.3 73 -11 -9 1020.9 1015.5 -7.2 82
00 25.04 СВ 4 50 км ясно -1.0 -7.8 60 -6 -2 1020.0 1014.7
03 25.04 ЮВ 1 50 км ясно +4.1 -6.3 47 +3 +12 опасность
простуды
1018.5 1013.3
06 25.04 В 3 50 км ясно +3.6 -5.0 53 0 +4 1018.1 1012.9
09 25.04 В 3 н/о н/о +2.9 -6.7 49 -0 -0 1018.3 1012.8 +4.9
12 25.04 СВ 1 н/о н/о -2.8 -7.6 69 -5 -5 1018.6 1013.0
15 25.04 штиль 0 н/о н/о -8.4 -10.3 86 -9 -9 1018.3 1012.5
18 25.04 В 2 н/о н/о -10.0 -11.0 92 -15 -15 1018.3 1012.5
21 25.04 СВ 2 50 км 6/0
[Ac trans]
-7.4 -11.8 71 -12 -10 1017.6 1012.2 -10.7 74
00 26.04 СВ 3 50 км 6/0
[Ac trans]
-3.6 -10.2 60 -8 -5 1016.6 1011.3
03 26.04 Ю 1 50 км 3/0
[Ac trans]
+2.6 -5.6 55 +2 +9 1015.2 1010.0

 

Местоположение метеостанции Белая Гора (Якутия, Россия): широта 68.55 долгота 146.20 высота над уровнем моря 41 м.

В архиве по умолчанию представлена погода в Белой Горе за последнюю неделю. Архивные данные за месяц целиком и за предыдущие месяцы, начиная с января 2011 года, Вы можете получить, выбрав интересующий диапазон дат из раскрывающегося списка и нажав кнопку "Ввод!".

Внимание! Время в таблицах - всемирное. Для получения местного времени необходимо прибавить поправку, которая в Белой Горе равна 11 ч.

Смотрите также архив погоды в соседних городах и на ближайших метеорологических станциях:

Погода в Чокурдахе (Якутия, Россия) (238 км)
Погода в Усть-Моме (Якутия, Россия) (266 км)
Погода в Депутатском (Якутия, Россия) (272 км)
Погода в Среднеколымске (Якутия, Россия) (335 км)
Погода в Андрюшкино (Якутия, Россия) (340 км)
Погода в Зырянке (Якутия, Россия) (373 км)
Погода в Усть-Куйге (Якутия, Россия) (447 км)
Погода в Усть-Чарках (Якутия, Россия) (449 км)
Погода в Юбилейной (Якутия, Россия) (458 км)
Погода в Усть-Нере (Якутия, Россия) (468 км)

Пояснения к столбцам:

Ветер - указаны скорость ветра в м/с - средняя за 10 мин, порывы в срок и между сроками (в фигурных скобках) и направление, откуда дует ветер: С - северный, СВ - северо-восточный, В - восточный, ЮВ - юго-восточный, Ю - южный, ЮЗ - юго-западный, З - западный, СЗ - северо-западный.
Видимость - горизонтальная дальность видимости в метрах или километрах. При видимости от 1 до 10 км при отсутствии осадков обычно наблюдается дымка, при ухудшении видимости до 1 км и менее - туман. В сухую погоду видимость может ухудшаться дымом, пылью или мглою.
Явления - указаны атмосферные явления, наблюдавшиеся в срок или в последний час перед сроком; фигурными скобками обозначены явления, наблюдавшиеся между сроками (за 1-3 часа до срока); квадратными скобками обозначены град или гололедные отложения с указанием их диаметра в мм.
Облачность - указаны через наклонную черту общая и нижняя облачность в баллах и высота нижней границы облаков в метрах; квадратными скобками обозначены формы облаков: Ci - перистые, Cs - перисто-слоистые, Cc - перисто-кучевые, Ac - высококучевые, As - высокослоистые, Sc - слоисто-кучевые, Ns - слоисто-дождевые, Cu - кучевые, Cb - кучево-дождевые. Подробнее классификацию облаков см. в Атласе облаков (PDF).
T - Температура воздуха - температура, измеренная на высоте 2 м над землей.
Td - Температура точки росы - температура, при понижении до которой содержащийся в воздухе водяной пар достигнет насыщения.
f - Относительная влажность воздуха - влажноcть воздуха, измеренная на высоте 2 м над землей.
Te - Эффективная температура - температура, которую ощущает одетый по сезону человек в тени. Характеристика душности погоды. При расчете учитывается влияние влажности воздуха и скорости ветра на теплоощущения человека.
Tes - Эффективная температура на солнце - температура, которую ощущает человек, с поправкой на солнечный нагрев. Характеристика знойности погоды. Зависит от высоты солнца над горизонтом, облачности и скорости ветра. Ночью, в пасмурную погоду, а также при ветре 12 м/с и более поправка равна нулю.
P - Атмосферное давление - приведенное к уровню моря атмосферное давление.
Po - Атмосферное давление - измеренное на уровне метеостанции атмосферное давление.
Tmin - Минимальная температура - минимум температуры воздуха на высоте 2 м над землей.
Tmax - Максимальная температура - максимум температуры воздуха на высоте 2 м над землей.
R - Количество осадков - Количество выпавших осадков за период времени, мм. При наведении курсора мыши на число - период времени, за который выпало указанное количество осадков.
R24 - Количество осадков - Количество выпавших осадков за 24 часа, мм.
S - Снежный покров - Высота снежного покрова, см. При наведении курсора мыши на число - состояние снежного покрова и степень покрытия местности в баллах.